Regional Weather Roundup
Issued by NWS

Home | Current Version | Previous Version | Graphics & Text | Print | Product List | Glossary On
Versions: 1 2 3 4 5 6 7 8 9 10 11 12 13 14 15 16 17 18 19 20 21 22 23 24 25 26 27 28 29 30 31 32 33 34 35 36 37 38 39 40 41 42 43 44 45 46 47 48 49 50
000
ASUS43 KMKX 230611
RWRWI

WISCONSIN REGIONAL WEATHER ROUNDUP
NATIONAL WEATHER SERVICE MILWAUKEE/SULLIVAN WI
1200 AM CST SUN NOV 23 2014

NOTE: "FAIR" INDICATES FEW OR NO CLOUDS BELOW 12,000 FEET WITH NO
SIGNIFICANT WEATHER AND/OR OBSTRUCTIONS TO VISIBILITY.

WIZ001-002-006>008-014>016-023>028-230700-
NORTHWEST WISCONSIN

CITY           SKY/WX    TMP DP  RH WIND       PRES   REMARKS
SUPERIOR ARPT  CLOUDY    34  33  95 E3        29.55F FOG
6HR MIN TEMP:  34; 6HR MAX TEMP:  35;

ASHLAND        CLOUDY    36  33  89 VRB3      29.59F
6HR MIN TEMP:  34; 6HR MAX TEMP:  36;

HAYWARD        CLOUDY    36  35  96 S8        29.57F FOG     WCI  30
6HR MIN TEMP:  34; 6HR MAX TEMP:  36;

SIREN          CLOUDY    38  37  99 SE6       29.52F FOG     WCI  33
6HR MIN TEMP:  34; 6HR MAX TEMP:  38;

CUMBERLAND     FOG       34  34 100 SE10      29.55F VSB 1/4 WCI  26
RICE LAKE      FOG       36  35  99 SE9       29.58F VSB 1/4 WCI  29
6HR MIN TEMP:  34; 6HR MAX TEMP:  36;

CHETEK         FOG       36  36 100 E3        29.58S VSB 1/4
6HR MIN TEMP:  34; 6HR MAX TEMP:  36;

LADYSMITH      FOG       37  37  97 SE6       29.61F VSB 1/2 WCI  33
6HR MIN TEMP:  35; 6HR MAX TEMP:  37;

EAU CLAIRE     FOG       37  37 100 SE5       29.58F VSB 1/4 WCI  33
6HR MIN TEMP:  35; 6HR MAX TEMP:  37;

MENOMONIE      FOG       36  36  99 CALM      29.58S VSB<1/4
6HR MIN TEMP:  35; 6HR MAX TEMP:  36;

NEW RICHMOND   CLOUDY    39  39 100 SE10      29.53F FOG     WCI  32
6HR MIN TEMP:  34; 6HR MAX TEMP:  39;

OSCEOLA        CLOUDY    39  39 100 SE6       29.55F FOG     WCI  35
6HR MIN TEMP:  35; 6HR MAX TEMP:  39;

$$

WIZ003>005-009-010-017-018-230700-
NORTH CENTRAL WISCONSIN

CITY           SKY/WX    TMP DP  RH WIND       PRES   REMARKS
MANITOWISH WTR FOG       34  34 100 S7        29.62F VSB 1   WCI  28
6HR MIN TEMP:  32; 6HR MAX TEMP:  34;

ARBOR VITAE    FOG       37  36  96 S6        29.63F VSB 1   WCI  32
6HR MIN TEMP:  34; 6HR MAX TEMP:  37;

WOODRUFF       FOG       37  36  96 S6        29.63F VSB 1   WCI  32
6HR MIN TEMP:  34; 6HR MAX TEMP:  37;

RHINELANDER    FOG       34  34 100 CALM      29.65F VSB 1/2
6HR MIN TEMP:  33; 6HR MAX TEMP:  34;

EAGLE RIVER    FOG       34  34 100 S6        29.64F VSB 3/4 WCI  29
6HR MIN TEMP:  32; 6HR MAX TEMP:  34; 6HR PCP:  0.04;

LAND O LAKES   FOG       35  35 100 S5        29.64F VSB 1   WCI  31
6HR MIN TEMP:  32; 6HR MAX TEMP:  35;

PHILLIPS       CLOUDY    35  35 100 SE6       29.61F FOG     WCI  30
6HR MIN TEMP:  33; 6HR MAX TEMP:  35;

TOMAHAWK       FOG       35  34  96 CALM      29.65F VSB 3/4
6HR MIN TEMP:  33; 6HR MAX TEMP:  35;

MEDFORD        FOG       36  36 100 SE7       29.62F VSB 1/4 WCI  30
6HR MIN TEMP:  33; 6HR MAX TEMP:  36;

MERRILL        LGT RAIN  35  35 100 SE5       29.67F VSB 1/4 WCI  31
6HR MIN TEMP:  34; 6HR MAX TEMP:  35;

$$

WIZ029-030-035-036-043>047-230700-
CENTRAL WISCONSIN

CITY           SKY/WX    TMP DP  RH WIND       PRES   REMARKS
WAUSAU         FOG       36  36 100 E6        29.66F VSB 1/4 WCI  31
6HR MIN TEMP:  34; 6HR MAX TEMP:  36;

MOSINEE        SNOW      36  36 100 SE8       29.68F VSB 1/4 WCI  29
MARSHFIELD     FOG       39  39 100 S6        29.65F VSB 1/4 WCI  35
6HR MIN TEMP:  36; 6HR MAX TEMP:  40;

STEVENS POINT  FOG       38  38 100 CALM      29.69S VSB 1/4
6HR MIN TEMP:  34; 6HR MAX TEMP:  38;

WAUPACA        FOG       41  40  95 E3        29.71F VSB 1/4
6HR MIN TEMP:  39; 6HR MAX TEMP:  41;

WAUTOMA        FOG       44  44 100 SE5       29.70F VSB 1/4
6HR MIN TEMP:  38; 6HR MAX TEMP:  44;

WISC RAPIDS    CLOUDY    44  42  93 S8        29.68F
6HR MIN TEMP:  37; 6HR MAX TEMP:  44;

CAMP DOUGLAS   CLOUDY    49  49 100 S8        29.66F FOG
6HR MIN TEMP:  38; 6HR MAX TEMP:  49;

$$

WIZ011>013-019>022-031-037>040-048>050-230700-
NORTHEAST WISCONSIN

CITY           SKY/WX    TMP DP  RH WIND       PRES   REMARKS
ANTIGO         FOG       33  33 100 SE6       29.69S VSB 1/4 WCI  28
6HR MIN TEMP:  33; 6HR MAX TEMP:  34;

SHAWANO        FOG       37  36  94 CALM      29.72F VSB<1/4
6HR MIN TEMP:  37; 6HR MAX TEMP:  40;

OCONTO         CLOUDY    37  37 100 CALM      29.73F
6HR MIN TEMP:  36; 6HR MAX TEMP:  37;

STURGEON BAY   CLOUDY    41  39  93 S8        29.75F
6HR MIN TEMP:  37; 6HR MAX TEMP:  41;

GREEN BAY      CLOUDY    42  41  96 S6        29.73F FOG
6HR MIN TEMP:  36; 6HR MAX TEMP:  42;

MANITOWOC      CLOUDY    43  43 100 S9        29.75F FOG
6HR MIN TEMP:  41; 6HR MAX TEMP:  44;

APPLETON       FOG       41  41 100 S7        29.71F VSB 1/4
CLINTONVILLE   FOG       37  37 100 CALM      29.71F VSB 1/4
OSHKOSH        CLOUDY    46  44  93 S13       29.72F FOG
6HR MIN TEMP:  41; 6HR MAX TEMP:  47;

$$

WIZ032>034-041-042-053>061-230700-
SOUTHWEST WISCONSIN

CITY           SKY/WX    TMP DP  RH WIND       PRES   REMARKS
LA CROSSE      CLOUDY    49  47  93 S16       29.62F FOG
6HR MIN TEMP:  39; 6HR MAX TEMP:  49;

SPARTA         CLOUDY    50  49  96 S8G18     29.65F FOG
6HR MIN TEMP:  37; 6HR MAX TEMP:  50;

VIROQUA        CLOUDY    49  49 100 S13       29.65F
6HR MIN TEMP:  38; 6HR MAX TEMP:  49;

BOSCOBEL       CLOUDY    54  49  83 S8        29.69S
6HR MIN TEMP:  40; 6HR MAX TEMP:  54;

PRAIRIE DU CHI CLOUDY    53  48  84 SE6       29.67F
6HR MIN TEMP:  44; 6HR MAX TEMP:  53;

PLATTEVILLE    CLOUDY    50  49  94 S16       29.72F
6HR MIN TEMP:  46; 6HR MAX TEMP:  51;

$$

WIZ056-057-062-063-064-067-068-230700-
SOUTH CENTRAL WISCONSIN

CITY           SKY/WX    TMP DP  RH WIND       PRES   REMARKS
REEDSBURG      CLOUDY    51  49  93 S10       29.68F
6HR MIN TEMP:  40; 6HR MAX TEMP:  51;

BARABOO/DELLS  CLOUDY    50  48  93 S14       29.69S FOG
6HR MIN TEMP:  40; 6HR MAX TEMP:  50;

LONE ROCK      CLOUDY    56  48  74 S8        29.70F
6HR MIN TEMP:  43; 6HR MAX TEMP:  56;

MINERAL POINT  CLOUDY    52  48  87 S10       29.71F
MADISON        CLOUDY    49  46  90 S12       29.74F
6HR MIN TEMP:  45; 6HR MAX TEMP:  50;

MIDDLETON      CLOUDY    51  49  93 S12G17    29.73F
6HR MIN TEMP:  47; 6HR MAX TEMP:  51;

WATERTOWN      CLOUDY    46  46 100 S8        29.75F
6HR MIN TEMP:  43; 6HR MAX TEMP:  46;

MONROE         CLOUDY    48  46  93 S17       29.75F
JANESVILLE     CLOUDY    50  46  87 S12       29.77S
$$

WIZ051-052-058>065-066-070>072-230700-
SOUTHEAST WISCONSIN

CITY           SKY/WX    TMP DP  RH WIND       PRES   REMARKS
MILWAUKEE      PTCLDY    46  43  89 S7        29.79F
6HR MIN TEMP:  38; 6HR MAX TEMP:  48;

WAUKESHA       CLOUDY    45  45 100 S9        29.78F
MILWAUKEE/TIMM PTCLDY    48  43  81 S12       29.78S
RACINE         MOCLDY    49  45  86 S9        29.82S
6HR MIN TEMP:  46; 6HR MAX TEMP:  50;

BURLINGTON     CLOUDY    47  46  93 S13       29.80S
6HR MIN TEMP:  43; 6HR MAX TEMP:  47;

KENOSHA        MOCLDY    50  46  86 SW13      29.81R
6HR MIN TEMP:  47; 6HR MAX TEMP:  50;

FOND DU LAC    CLOUDY    48  45  89 S10       29.73F
6HR MIN TEMP:  41; 6HR MAX TEMP:  49;

SHEBOYGAN      CLOUDY    42  40  92 S7        29.76F FOG
6HR MIN TEMP:  40; 6HR MAX TEMP:  43;

WEST BEND      MOCLDY    48  45  87 S9G16     29.76S
JUNEAU         CLOUDY    46  45  97 SE10      29.75F FOG
6HR MIN TEMP:  41; 6HR MAX TEMP:  46;

$$

LSZ147-162-230700-
LAKE SUPERIOR

STATION/POSITION TIME  TEMP    WIND        PRES    WAVE
                       AIR SEA DIR/SP/G            HT/PER
                 (UTC) (F)     (DEG/KT/KT) (MB)    (FT/S)
DEVILS ISLAND    0600   37     150/  7/  9 1003.4R
PORT WING        0540   36     110/  2/  3 1002.0F
SAXON HARBOR     0500   37      CALM  /  4 1003.0
$$

LMZ867-665-643>646-230700-
LAKE MICHIGAN

STATION/POSITION TIME  TEMP    WIND        PRES    WAVE



USA.gov is the U.S. government's official web portal to all federal, state and local government web resources and services.